Home   Weather   Valparaíso   Past weeks

Flag for Chile Past Weather in Valparaíso, Chile — Yesterday and Last 2 Weeks

Now
61 °F

Passing clouds.


Feels Like: 61 °F
Forecast: 52 / 61 °F
Wind: 2 mph from North

Location: Pudahuel

Current Time: Oct 1, 2016 at 12:14:03 AM

Latest Report: Oct 1, 2016 at 12:00 AM


Visibility: N/A

Pressure: 30.01 "Hg

Humidity: 55%

Dew Point: 45 °F

Location of ValparaísoLocation

Past Weather in Valparaíso — Graph

°F

Valparaíso Temperature Yesterday

Maximum temperature yesterday: 73 °F (at 4:00 PM)
Minimum temperature yesterday: 43 °F (at 6:00 AM)
Average temperature yesterday: 58 °F

High & Low Weather Summary for the Past Weeks

 TemperatureHumidityPressure
High88 °F (Sep 19, 4:00 PM)100% (Sep 17, 3:00 AM)30.15 "Hg (Sep 17, 3:00 AM)
Low37 °F (Sep 18, 8:00 AM)11% (Sep 19, 5:00 PM)29.89 "Hg (Sep 19, 4:00 PM)
Average60 °F63%30.01 "Hg
* Reported Sep 15 11:00 PM — Sep 30 11:00 PM, Valparaíso, Weather by CustomWeather, © 2016

Note: Actual official high and low records may vary slightly from our data, if they occured in-between our weather recording intervals... More about our weather records

Advertising

Valparaíso Weather History for the Previous 24 Hours

Scroll right to see more
 ConditionsComfort  
Time TempWeatherWind HumidityBarometerVisibility
11:00 PM
Fri, Sep 30
63 °FPassing clouds.3 mph52%30.01 "HgN/A
10:00 PM64 °FPassing clouds.5 mph46%30.01 "HgN/A
9:00 PM64 °FPassing clouds.7 mph46%30.01 "HgN/A
8:00 PM66 °FPassing clouds.9 mph43%30.01 "HgN/A
7:00 PM70 °FSunny.9 mph31%29.98 "Hg10 mi
6:00 PM72 °FSunny.12 mph29%29.98 "Hg10 mi
5:00 PM72 °FPassing clouds.10 mph29%30.01 "HgN/A
4:00 PM73 °FPassing clouds.12 mph29%30.01 "HgN/A
3:00 PM72 °FPassing clouds.9 mph33%30.04 "HgN/A
2:00 PM68 °FPassing clouds.8 mph40%30.04 "HgN/A
1:00 PM64 °FSunny.5 mph46%30.07 "Hg10 mi
12:00 PM61 °FSunny.3 mph55%30.07 "Hg10 mi
11:00 AM57 °FSunny.3 mph63%30.09 "Hg10 mi
10:00 AM52 °FClear.3 mph72%30.12 "Hg5 mi
9:00 AM46 °FClear.6 mph87%30.12 "Hg4 mi
8:00 AM43 °FFog.2 mph93%30.12 "Hg3 mi
7:00 AM43 °FClear.1 mph87%30.12 "Hg5 mi
6:00 AM43 °FClear.2 mph87%30.12 "Hg5 mi
5:00 AM45 °FClear.3 mph87%30.12 "Hg10 mi
4:00 AM46 °FClear.1 mph82%30.12 "Hg10 mi
3:00 AM48 °FClear.2 mph82%30.15 "Hg10 mi
2:00 AM50 °FPassing clouds.3 mph76%30.15 "HgN/A
1:00 AM52 °FPassing clouds.6 mph72%30.15 "HgN/A
12:00 AM54 °FPassing clouds.7 mph72%30.15 "HgN/A
Weather by CustomWeather, © 2016

See weather overviewHow to use our weather pages